Location: Newark
(30.1000°N, 109.4667°E)
Time: 18:01:16
(UTC+00:00)

Vanguard 2 Rocket - Pass Details

Date: 25 February 2020
Orbit: 554 x 3326 km, 32.9° (Epoch: 04 April)

Event Time Altitude Azimuth Distance (km) Brightness Sun altitude
Rises 13:15:14 0° 265° (W) 7,288 12.5 -34.7°
Reaches altitude 10° 13:20:24 10° 267° (W) 6,149 11.8 -35.8°
Maximum altitude 13:39:13 80° 355° (N) 2,427 8.8 -39.8°
Enters shadow 13:40:48 73° 49° (NE) 2,376 8.6 -40.1°
